Flag for Spain Weather past 2 weeks in Almería, Spain

Now
86 °F

Warm.


Feels Like: 89 °F
Forecast: 77 / 94 °F
Wind: 21 mph from Northeast

Location: Almeria / Aeropuerto

Current Time: Aug 2, 2015 at 11:03:25 AM

Latest Report: Aug 2, 2015 at 10:00 AM


Visibility: N/A

Pressure: 29.98 "Hg

Humidity: 55%

Dew point: 68 °F

Location of AlmeríaLocation

Historic Weather in Almería — Graph

°F

Almería temperature yesterday

Maximum temperature yesterday: 87 °F (at 5:00 PM)
Minimum temperature yesterday: 75 °F (at 7:00 AM)
Average temperature yesterday: 82 °F

Past Weeks' High & Low Weather Summary

 TemperatureHumidityPressure
High92 °F (Jul 26, 11:00 AM)89% (Jul 25, 6:00 AM)30.05 "Hg (Jul 25, 6:00 AM)
Low74 °F (Jul 28, 6:00 AM)39% (Jul 23, 10:00 AM)29.72 "Hg (Jul 31, 6:00 PM)
Average84 °F72%29.89 "Hg
* Reported Jul 18 9:00 AM — Aug 2 9:00 AM, Almería, Weather by CustomWeather, © 2015

Note: Actual official high and low records may vary slightly from our data, if they occured in-between our weather recording intervals... More about our weather records

Advertising

Almería weather history for previous 24 hours

 ConditionsComfort  
Time TempWeatherWind HumidityBarometerVisibility
9:00 AM
Sun, Aug 2
84 °FWarm.16 mph57%29.97 "HgN/A
8:00 AM80 °FPassing clouds.9 mph64%29.95 "Hg28 mi
7:00 AM79 °FWarm.5 mph67%29.95 "HgN/A
6:00 AM80 °FWarm.5 mph66%29.94 "HgN/A
4:00 AM80 °FWarm.2 mph69%29.94 "HgN/A
3:00 AM80 °FWarm.5 mph68%29.94 "HgN/A
2:00 AM80 °FWarm.12 mph70%29.95 "HgN/A
12:00 AM80 °FWarm.15 mph75%29.95 "HgN/A
10:00 PM
Sat, Aug 1
82 °FWarm.21 mph74%29.91 "HgN/A
9:00 PM84 °FWarm.17 mph68%29.88 "HgN/A
8:00 PM86 °FScattered clouds.14 mph63%29.87 "Hg25 mi
7:00 PM87 °FWarm.5 mph64%29.86 "HgN/A
6:00 PM87 °FWarm.8 mph63%29.87 "HgN/A
5:00 PM87 °FPassing clouds.9 mph62%29.87 "Hg19 mi
4:00 PM86 °FWarm.9 mph62%29.87 "HgN/A
3:00 PM86 °FWarm.10 mph62%29.88 "HgN/A
2:00 PM87 °FPassing clouds.10 mph62%29.88 "Hg19 mi
1:00 PM86 °FWarm.9 mph63%29.88 "HgN/A
12:00 PM84 °FWarm.8 mph67%29.87 "HgN/A
11:00 AM83 °FWarm.8 mph70%29.87 "HgN/A
Weather by CustomWeather, © 2015

See weather overviewHow to use our weather pages